Location: Newark
(41.0400°S, 62.7845°W)
Time: 23:28:41
(UTC+00:00)

Vanguard 2 - Pass Details

Date: 09 December 2021
Orbit: 554 x 2935 km, 32.9° (Epoch: 27 January)

Event Time Altitude Azimuth Distance (km) Brightness Sun altitude
Rises 01:48:51 0° 320° (NW) 6,023 11.9 -18.9°
Reaches altitude 10° 01:52:50 10° 326° (NNW) 5,263 11.5 -19.3°
Maximum altitude 02:07:43 42° 30° (NNE) 3,738 10.4 -20.7°
Drops below altitude 10° 02:23:15 10° 92° (E) 5,508 11.6 -22.0°
Sets 02:27:30 0° 98° (E) 6,319 12.0 -22.4°
